GFSCGP_850_rhum_210.txt.gz
RH
21 22 19 14 13 10 8 7 6 5 5 6 7 6 6 4 5 5 6 6 6 7 7 7 9 9 9 11 17 18 27 45 50 59 72 89 89 91 93 86 88 83 88 84
23 25 15 11 10 10 10 10 8 6 5 6 6 6 5 5 5 4 4 4 5 6 6 6 7 8 8 10 18 20 22 32 61 62 66 81 90 90 90 92 90 88 88 87
26 20 14 12 11 12 11 11 10 9 6 6 6 7 6 5 5 4 4 4 4 6 6 6 6 6 7 14 21 30 39 37 43 74 78 89 94 83 90 91 89 89 90 88
24 17 15 15 14 11 14 8 8 9 10 12 6 10 7 5 5 4 4 5 5 6 6 6 6 6 11 22 36 45 52 48 47 53 80 88 79 82 83 87 92 94 92 90
25 20 18 17 14 12 13 9 9 9 10 12 9 10 8 6 5 5 7 8 8 9 8 7 7 14 22 36 42 47 44 43 53 55 72 84 85 89 96 96 96 100 92 91
18 15 15 15 12 11 11 11 11 12 13 19 13 12 10 7 6 5 5 5 6 9 9 10 14 21 38 41 38 34 47 45 47 58 74 78 86 91 98 100 100 99 100 96
19 16 14 13 15 13 13 16 22 22 23 23 11 11 10 7 6 6 7 6 6 8 10 17 30 39 48 48 42 34 55 73 73 77 79 84 88 86 90 94 98 100 98 100
24 26 17 13 15 16 17 17 24 27 24 16 10 11 8 6 5 6 6 6 7 12 16 20 30 36 48 64 49 36 40 69 82 87 89 95 89 90 97 98 99 98 100 100
21 19 12 14 12 13 17 20 15 22 20 22 11 8 7 8 9 11 9 8 8 12 26 28 28 36 56 66 54 53 52 50 60 82 89 90 87 95 96 99 99 100 100 100
22 22 12 12 12 14 17 13 23 22 35 35 18 13 11 11 12 12 13 12 10 12 23 25 31 39 55 69 66 87 95 99 97 96 95 96 96 98 99 98 96 99 100 100
24 26 20 12 16 16 19 21 19 19 24 33 31 20 12 11 16 15 14 12 12 11 14 19 30 41 52 65 66 80 99 97 98 98 98 97 97 99 100 98 98 100 100 100
26 30 33 21 12 12 16 20 20 29 30 24 24 24 12 16 14 13 13 11 12 14 16 22 30 43 52 54 72 79 98 98 99 100 100 100 99 100 99 100 100 100 98 89
30 38 45 34 21 14 17 19 18 19 22 28 32 26 13 12 12 10 12 12 13 16 24 26 32 43 54 60 68 82 98 99 99 99 100 100 99 100 100 99 87 78 66 56
31 36 41 43 29 21 23 19 18 19 31 30 25 20 16 14 15 12 12 13 19 22 25 26 27 41 49 62 73 82 94 99 100 100 100 99 96 96 85 75 67 60 59 61
55 48 37 30 24 21 19 20 19 21 21 30 26 20 15 13 15 18 16 18 18 21 26 26 27 39 48 58 75 86 86 100 99 97 97 97 98 100 97 89 84 80 74 68
51 70 52 41 26 24 24 17 19 20 19 18 18 21 16 14 12 14 17 19 19 18 23 23 29 33 52 59 67 82 86 94 90 92 97 99 100 100 96 86 75 67 59 34
95 96 72 75 36 32 39 28 19 20 18 19 24 19 15 16 15 13 12 16 19 19 21 22 28 34 42 60 69 81 84 96 93 93 98 99 100 91 76 58 38 22 29 48
96 96 96 90 54 69 35 21 20 22 19 17 16 15 14 14 13 13 13 14 15 20 23 24 26 36 48 65 80 85 89 97 97 99 100 98 86 66 51 37 33 60 68 60
72 88 99 98 78 48 35 28 27 26 26 20 19 16 14 12 14 16 13 14 15 20 22 25 28 39 53 57 78 91 91 99 99 93 82 65 60 41 33 68 72 61 41 28
54 65 94 100 94 81 47 27 22 23 40 19 17 19 18 18 27 22 16 18 23 24 28 28 35 44 58 70 82 98 100 96 79 64 58 53 41 62 74 57 34 25 26 26
71 90 96 95 96 53 29 26 18 44 38 23 17 17 24 30 26 24 25 26 30 33 35 42 49 61 78 87 97 96 79 66 59 56 41 51 69 67 62 60 63 78 76 61
63 78 96 93 99 83 27 22 30 28 23 21 19 19 22 31 33 35 36 38 44 47 51 61 73 90 96 89 89 71 59 58 51 41 65 79 83 88 86 83 68 45 35 27
69 67 83 72 73 39 26 24 19 19 29 26 26 26 29 31 34 40 50 52 60 66 75 78 82 80 69 59 57 59 57 43 66 85 81 85 86 74 45 29 26 25 26 24
45 52 93 64 40 35 29 26 22 22 26 26 27 27 32 37 40 49 52 58 69 69 71 64 62 60 60 62 62 45 57 77 76 68 48 43 36 37 33 28 28 27 26 27
77 61 78 68 45 36 32 30 29 29 31 31 30 29 30 38 57 55 57 60 64 63 59 56 61 73 75 64 73 80 74 54 48 42 42 47 39 34 34 35 37 36 33 35
68 85 78 75 44 48 46 40 37 36 37 36 36 39 40 38 54 58 56 58 58 58 55 61 77 83 75 78 74 61 51 59 59 64 67 62 49 45 44 41 38 38 35 34

GFSCGP_850_rhum_216.txt.gz
RH
38 46 46 32 33 26 23 21 22 18 14 14 16 15 12 9 9 8 7 6 5 5 5 5 7 8 10 11 12 13 15 19 42 48 51 50 43 43 44 44 64 69 67 69
47 51 37 28 28 29 29 29 27 20 16 14 15 14 12 9 8 7 6 6 6 5 5 5 5 6 7 10 13 14 15 17 22 37 42 51 48 50 46 43 47 69 79 78
51 40 32 29 29 30 28 28 25 21 16 15 14 15 13 9 9 7 7 6 5 5 5 5 5 6 6 7 9 15 15 15 18 31 46 60 72 74 82 80 71 73 82 83
47 36 36 31 31 28 32 21 19 19 20 22 13 22 14 11 10 9 7 5 4 5 5 5 5 6 6 6 7 15 14 14 23 36 44 48 51 60 61 73 78 81 86 86
41 38 40 39 31 25 28 22 21 20 20 19 18 21 14 13 12 10 9 6 5 5 5 5 5 4 6 6 6 10 17 25 34 38 40 48 54 56 61 66 71 82 87 90
36 27 30 34 29 24 21 22 23 22 26 33 23 21 16 14 12 10 8 6 5 5 4 5 6 5 6 8 12 18 24 26 29 32 38 47 54 55 66 73 78 80 81 84
40 38 29 26 32 26 26 28 39 38 38 32 20 23 18 14 12 11 11 6 5 4 6 7 6 6 8 12 22 27 32 38 41 44 45 49 61 73 78 80 81 78 75 82
56 58 38 28 30 33 31 29 49 48 43 29 20 27 19 13 10 9 8 7 7 7 7 8 8 9 14 21 24 23 28 18 19 25 31 43 56 63 73 86 86 80 77 80
54 52 28 27 25 26 32 33 24 36 32 38 26 17 16 15 12 12 12 10 10 7 8 11 10 14 20 26 27 28 20 13 10 16 26 39 46 58 81 92 93 86 81 83
46 59 33 26 24 24 27 24 37 40 47 46 34 31 26 20 17 18 20 13 10 8 14 21 17 27 34 33 30 25 19 10 14 18 24 43 65 75 86 91 89 79 85 93
52 53 47 37 32 32 27 30 28 30 36 41 40 30 20 20 19 20 20 17 11 19 26 27 36 36 31 30 30 24 18 14 19 25 31 45 62 74 85 88 90 81 83 81
52 57 64 54 37 28 26 23 27 39 38 38 32 31 18 15 13 13 16 15 17 36 34 36 35 33 32 30 24 24 18 17 24 30 34 42 53 66 70 73 89 90 80 88
56 74 84 63 45 35 38 33 30 30 30 36 43 35 17 16 18 17 16 13 16 31 36 35 36 35 30 29 25 27 18 19 28 31 30 40 63 82 86 88 85 85 88 91
70 87 85 72 54 41 41 32 29 33 44 36 34 28 24 22 17 14 14 13 10 13 28 30 35 32 30 30 31 31 23 20 31 40 40 46 73 90 89 87 85 86 86 88
73 96 97 94 88 83 75 76 66 35 32 42 32 28 22 24 25 19 13 12 14 10 13 31 29 29 31 34 36 35 32 28 33 38 46 57 78 87 90 97 96 98 98 100
80 97 97 100 95 95 100 72 73 74 56 30 28 28 18 17 18 19 19 18 16 18 12 17 24 24 29 30 30 35 38 35 37 38 47 58 94 98 99 100 100 100 100 100
67 79 90 89 60 65 86 71 62 66 60 49 40 28 21 19 18 19 17 15 17 19 29 35 29 27 30 32 31 33 33 39 47 44 58 56 85 98 99 100 100 100 100 100
74 76 88 82 77 93 52 52 48 55 54 52 45 36 23 21 16 17 16 15 14 13 15 24 32 34 32 34 34 34 40 42 50 53 65 63 88 96 98 100 99 100 100 98
72 77 89 94 78 56 48 48 49 61 57 41 50 43 35 24 21 20 14 13 13 13 12 12 12 16 24 30 38 42 48 51 60 65 67 67 83 88 90 97 100 100 100 96
68 69 89 97 96 78 44 34 31 35 55 34 47 45 42 34 37 27 19 15 13 12 11 11 12 15 16 26 36 46 52 56 59 63 69 79 86 89 90 94 99 98 81 68
84 79 94 84 95 75 40 34 30 58 54 28 31 31 33 37 30 23 21 19 17 16 15 14 14 15 15 19 36 50 56 62 63 70 80 88 95 96 96 98 94 80 70 68
64 85 90 85 88 88 42 42 54 41 30 27 23 23 29 29 30 24 21 19 18 17 16 16 16 14 20 31 44 56 65 66 75 86 91 96 98 100 100 96 82 73 67 61
78 70 67 69 74 57 38 40 32 32 32 30 35 38 38 38 34 27 25 21 19 19 20 25 27 29 42 47 51 56 69 81 92 94 98 100 100 96 85 78 76 82 97 100
66 55 68 59 47 42 40 36 34 31 33 34 41 48 41 39 36 32 28 25 26 32 35 36 38 41 47 64 70 76 84 95 97 100 100 94 87 80 74 81 97 99 95 91
63 60 62 66 55 44 40 37 34 38 39 37 34 32 34 38 36 33 40 41 35 42 54 57 55 57 67 83 94 97 95 100 100 96 85 75 72 80 92 93 85 85 61 50
60 61 80 74 47 46 40 33 34 36 37 41 43 45 42 46 36 44 55 53 55 61 63 66 69 71 81 96 100 100 99 96 87 71 70 78 89 94 85 79 60 69 58 90

GFSCGP_850_rhum_219.txt.gz
RH
44 50 54 42 34 25 22 25 24 20 16 15 19 19 17 12 12 11 9 8 7 6 5 5 5 5 5 12 15 9 10 12 25 45 49 43 34 32 32 32 36 42 51 55
51 55 39 35 33 32 32 33 33 27 21 17 20 20 16 14 12 10 9 8 7 6 5 5 5 6 5 6 6 9 11 13 14 22 32 45 41 40 39 40 42 48 57 67
43 44 36 39 35 35 35 34 29 27 20 19 17 18 17 13 11 9 7 8 7 6 6 5 5 6 7 8 8 10 12 12 14 16 31 45 55 52 48 46 48 51 63 72
46 41 42 40 41 33 38 29 26 26 25 28 17 15 14 14 14 11 8 8 8 6 6 5 5 5 5 5 6 7 8 10 14 20 25 31 35 40 38 42 45 49 58 70
43 48 49 48 38 31 35 27 28 26 26 25 24 26 17 15 16 14 12 8 6 6 6 5 5 5 5 5 6 6 7 10 15 17 24 32 44 42 46 46 48 54 59 69
42 34 38 42 35 31 26 29 28 27 30 38 25 25 17 17 16 13 11 8 7 6 5 5 5 5 4 5 5 7 6 10 17 20 24 31 38 44 49 56 62 66 68 72
58 55 33 31 38 32 34 37 50 46 52 39 21 29 20 17 15 13 13 8 7 6 6 6 5 5 5 5 5 7 6 9 16 21 33 30 32 39 44 56 66 71 75 79
72 67 47 29 37 39 39 39 58 57 39 30 23 33 21 16 13 12 9 8 8 7 7 7 6 6 6 6 6 7 7 12 25 26 22 24 29 41 48 58 66 76 81 83
68 65 33 34 32 32 41 42 34 43 38 46 30 24 18 16 18 17 14 12 11 8 7 6 7 6 7 8 8 8 11 25 25 23 22 24 32 34 36 46 60 74 88 91
57 68 42 34 32 31 34 29 40 44 60 57 44 37 25 20 15 17 16 14 9 10 12 12 9 8 8 12 14 18 28 28 25 19 23 30 33 37 41 51 61 74 83 82
69 73 63 43 42 43 38 41 39 37 41 52 50 39 28 24 24 20 19 15 12 11 11 12 9 9 15 19 29 33 37 26 19 22 30 34 36 42 46 59 74 92 87 84
53 74 87 68 43 34 33 33 35 51 48 45 41 38 22 21 18 16 17 13 12 13 18 17 18 22 25 35 44 37 28 24 18 21 27 28 32 37 44 65 85 93 94 83
85 73 95 74 59 44 48 44 40 37 39 45 52 43 22 20 22 18 17 14 13 12 18 38 44 45 40 47 41 34 29 23 16 18 20 20 21 30 36 45 63 73 75 90
64 79 98 89 59 63 49 44 41 43 53 44 41 35 27 26 24 18 15 14 14 11 14 30 60 55 50 46 37 34 28 22 16 15 16 15 17 26 43 57 67 82 82 82
82 100 91 85 79 78 77 88 78 75 64 77 50 40 30 27 28 26 17 15 15 14 13 13 29 47 45 43 36 33 28 24 15 16 14 16 19 27 35 52 65 80 84 80
60 79 99 100 95 96 94 78 85 73 62 58 65 64 38 24 21 23 20 18 18 15 14 13 18 18 38 37 38 32 28 31 19 20 19 23 35 24 34 59 76 86 96 97
73 72 89 94 91 97 99 97 80 65 50 49 77 59 45 46 36 26 21 20 18 16 14 13 12 18 19 32 33 37 30 34 30 28 27 32 31 27 36 69 98 93 99 100
80 79 81 90 78 95 63 62 58 58 47 40 44 43 44 45 43 38 33 27 20 17 15 13 12 14 17 27 38 52 51 45 42 39 36 36 35 45 52 60 85 98 100 100
76 79 88 89 78 64 56 52 54 58 60 51 45 44 41 34 39 44 37 33 29 23 20 16 13 13 14 18 25 38 47 49 47 47 46 44 44 57 66 66 94 98 100 100
63 72 83 82 91 88 47 42 34 36 62 39 39 42 36 32 56 31 30 33 31 28 22 18 17 16 16 15 16 23 35 43 47 50 49 54 58 75 83 85 96 99 99 100
86 94 91 86 82 66 45 35 33 66 54 31 30 29 27 40 38 34 31 22 22 20 24 20 18 16 15 15 14 20 34 41 40 49 55 64 80 89 91 90 96 99 99 100
65 92 88 88 89 84 42 38 52 42 32 29 27 30 31 29 26 25 27 28 34 33 26 24 21 17 17 18 21 24 26 36 60 63 67 80 95 97 96 97 100 100 100 97
83 60 62 71 74 51 34 37 34 31 33 32 33 31 33 33 30 31 42 45 45 40 34 23 20 19 18 17 17 27 34 44 61 81 93 100 100 100 100 100 100 99 93 82
70 57 71 66 50 50 42 35 34 34 33 30 35 37 37 38 36 38 50 43 40 38 35 32 23 21 22 20 27 41 56 85 99 97 100 100 100 100 100 100 99 88 75 68
76 65 64 65 56 46 39 38 37 38 37 36 35 33 33 37 38 38 36 36 38 39 42 39 32 29 36 43 54 74 89 87 100 100 100 100 100 100 97 88 87 87 93 98
70 69 75 82 50 57 46 40 40 42 41 40 40 40 40 40 39 37 43 47 50 53 47 55 53 59 69 78 97 99 99 99 100 100 100 100 98 96 95 95 98 96 92 94

GFSCGP_850_rhum_222.txt.gz
RH
42 57 57 49 41 34 25 28 25 22 19 17 20 21 18 14 13 14 10 9 8 7 7 6 6 6 13 28 35 35 35 33 38 44 48 49 44 41 34 29 31 34 38 41
48 51 34 42 41 36 33 34 34 28 25 21 24 24 19 18 16 12 10 9 8 8 7 5 5 6 6 6 13 24 24 30 32 33 32 41 41 45 44 36 30 32 36 40
45 28 34 41 44 44 40 39 36 33 25 24 20 21 19 16 15 12 10 9 8 8 6 5 5 5 5 5 6 6 6 10 10 11 21 32 44 48 50 44 37 33 34 37
48 29 36 36 43 41 49 34 32 33 32 37 18 20 13 11 11 14 10 8 7 7 6 5 5 6 6 5 5 6 6 7 8 12 13 17 18 23 26 35 41 40 39 41
51 42 37 41 46 38 42 31 36 31 32 28 27 35 24 17 16 13 16 9 8 7 6 6 5 5 6 6 6 6 8 9 9 11 12 15 20 18 27 37 43 46 48 51
69 48 38 38 36 38 33 33 32 32 36 43 31 30 18 15 19 15 14 10 8 7 7 6 6 6 5 5 5 5 5 6 8 10 11 14 17 20 23 30 40 45 52 56
68 66 56 41 50 42 41 40 58 56 54 49 25 34 21 17 16 15 16 11 8 7 6 6 6 6 6 6 5 5 6 6 7 9 10 12 18 25 26 31 38 43 52 56
71 73 55 47 45 52 48 47 62 56 46 40 29 38 22 15 13 13 13 11 10 8 7 6 6 6 7 6 5 5 6 6 7 8 8 13 23 27 30 34 42 51 56 63
75 76 38 40 36 35 42 54 40 53 45 52 27 24 20 19 19 21 17 14 12 10 8 8 8 9 8 8 6 5 6 6 6 8 10 17 23 29 27 29 40 51 62 70
65 72 49 42 36 34 37 32 47 51 73 62 49 38 24 21 18 18 21 18 12 11 11 10 10 9 7 10 6 6 8 7 7 9 14 19 25 30 31 37 44 49 56 66
60 77 60 57 54 50 49 47 45 42 48 59 50 35 34 28 22 22 18 12 13 12 10 11 10 10 12 11 8 7 10 10 13 20 21 26 30 31 32 34 39 46 53 66
54 76 89 67 46 48 41 45 42 58 60 54 44 36 22 26 25 27 24 17 15 13 12 12 11 15 24 14 14 11 16 20 26 24 28 26 24 24 28 31 41 46 59 71
70 94 95 75 65 55 66 54 47 40 42 54 66 51 24 20 20 21 23 18 17 15 14 14 13 13 41 37 28 28 34 32 32 33 22 20 21 23 25 32 42 47 63 87
68 84 77 84 81 85 82 64 57 54 63 53 49 43 33 33 32 30 24 20 19 17 16 14 14 13 33 42 52 48 51 43 36 24 16 18 18 21 26 30 35 40 52 63
84 100 94 84 71 78 91 77 77 90 62 73 64 51 35 34 40 31 25 22 22 19 17 16 15 12 20 38 42 61 50 39 31 23 18 16 19 22 31 30 32 43 59 73
65 100 96 94 80 86 86 82 85 87 75 71 94 89 53 45 40 41 38 31 24 22 21 20 19 15 15 32 47 49 46 40 39 27 19 18 21 21 26 30 48 59 58 70
87 85 91 84 74 87 98 84 75 98 98 85 99 76 55 52 47 48 43 39 38 34 31 27 24 19 19 18 17 32 50 55 53 36 32 32 27 23 29 34 60 74 66 56
86 87 83 86 79 95 55 45 51 60 57 76 87 72 43 43 38 35 32 36 37 35 28 27 27 24 21 18 21 19 23 45 52 52 34 36 36 35 38 47 61 73 85 75
83 84 90 91 81 58 56 52 69 70 72 59 49 42 41 36 36 45 40 36 30 24 21 22 26 26 24 20 17 20 32 38 60 56 48 34 34 42 44 61 81 91 82 93
79 80 86 100 87 82 44 38 34 48 68 46 48 46 44 44 63 44 29 24 19 27 23 18 19 18 23 22 18 21 24 43 44 56 51 46 41 50 44 81 96 95 99 100
93 93 93 91 90 76 50 38 34 71 54 32 33 36 45 55 43 28 27 27 28 25 23 24 33 31 18 23 24 22 40 42 30 41 56 55 56 59 70 98 100 99 100 100
67 94 94 92 96 92 48 41 52 39 29 29 32 34 36 34 30 28 28 31 26 27 24 21 43 38 33 31 28 23 24 18 30 56 70 71 79 76 100 100 100 100 100 99
79 60 79 79 75 57 35 38 31 32 33 32 34 31 28 35 32 27 27 30 32 32 27 22 26 30 26 30 33 32 23 22 22 35 53 79 96 100 100 100 100 100 100 100
92 72 87 74 54 49 41 40 42 41 36 33 34 34 32 32 30 30 31 35 36 29 33 33 33 27 25 29 34 33 31 26 31 46 80 95 100 100 100 100 100 100 100 100
75 80 88 87 69 54 47 46 48 52 45 42 39 38 37 34 34 34 37 36 34 37 38 37 37 37 34 38 39 44 38 39 54 66 89 100 100 100 100 100 100 100 100 99
75 70 86 76 82 96 72 73 69 79 75 67 59 49 43 41 39 36 35 36 38 38 38 40 42 47 44 50 50 60 55 65 79 100 100 100 100 100 100 100 100 99 95 90